Zurück zum Katalog

CZ-6A DEB

AktivPO
NORAD 55212·DEBRIS·🇨🇳 China

Gestartet Nov 11, 2022 von Taiyuan Satellite Launch Center

Loading…

Nächste Überflüge (nächste 24 Stunden)

TLE

AktuellSource: Space-Track

Epoche: Sep 14, 2026, 05:37 UTC

1 55212U 22151WD  26257.23439545  .00098653  00000-0  40697-2 0  9992
2 55212  98.6358 355.6859 0024605 278.9470  80.8979 15.23358717199485

Verfolge CZ-6A DEB in Echtzeit mit AllMySat

Download on the App Store